This is the latest recevied weather packets stored in our database for station/object AA4XD. If no packets are shown the sender has not sent any weather packets the latest 10 day(s).
| Time | Temp. | Humidity | Pressure | Rain* | Wind** | Luminosity | Snow |
|---|---|---|---|---|---|---|---|
| 1777817456 | 18.89° C | 74% | 1018.3 hPa | 0 mm | - | 628 W/m² | - |
| 1777816849 | 18.89° C | 78% | 1018.2 hPa | 0 mm | - | 502 W/m² | - |
| 1777816547 | 18.33° C | 82% | 1018.3 hPa | 0 mm | - | 466 W/m² | - |
| 1777812609 | 14.44° C | 99% | 1017.9 hPa | 0 mm | - | 443 W/m² | - |
| 1777811095 | 13.33° C | 99% | 1017.7 hPa | 0 mm | - | 112 W/m² | - |
| 1777810792 | 13.33° C | 99% | 1017.8 hPa | 0 mm | - | 98 W/m² | - |
| 1777809580 | 13.33° C | 99% | 1017.3 hPa | 0 mm | - | 79 W/m² | - |
| 1777808368 | 12.78° C | 99% | 1017.3 hPa | 0 mm | - | 46 W/m² | - |
| 1777807463 | 12.78° C | 99% | 1017.5 hPa | 0 mm | - | 30 W/m² | - |
| 1777804739 | 13.33° C | 98% | 1016.7 hPa | 0 mm | - | 1 W/m² | - |
| 1777804437 | 13.33° C | 98% | 1016.6 hPa | 0 mm | - | 0 W/m² | - |
| 1777803830 | 13.33° C | 98% | 1016.4 hPa | 0 mm | - | 0 W/m² | - |
| 1777802921 | 13.89° C | 98% | 1016.2 hPa | 0 mm | - | 0 W/m² | - |
| 1777802619 | 13.89° C | 98% | 1016.2 hPa | 0 mm | - | 0 W/m² | - |
| 1777802316 | 13.89° C | 98% | 1016 hPa | 0 mm | - | 0 W/m² | - |
| 1777801712 | 13.89° C | 98% | 1015.9 hPa | 0 mm | - | 0 W/m² | - |
| 1777801409 | 13.89° C | 98% | 1015.9 hPa | 0 mm | - | 0 W/m² | - |
| 1777801106 | 13.89° C | 98% | 1015.9 hPa | 0 mm | - | 0 W/m² | - |
| 1777800803 | 13.89° C | 98% | 1016 hPa | 0 mm | - | 0 W/m² | - |
| 1777800503 | 13.89° C | 98% | 1015.9 hPa | 0 mm | - | 0 W/m² | - |
| 1777800200 | 13.89° C | 98% | 1015.8 hPa | 0 mm | - | 0 W/m² | - |
| 1777799900 | 13.89° C | 98% | 1015.9 hPa | 0 mm | - | 0 W/m² | - |
| 1777799598 | 13.89° C | 98% | 1016 hPa | 0 mm | - | 0 W/m² | - |
| 1777799294 | 13.89° C | 98% | 1015.9 hPa | 0 mm | - | 0 W/m² | - |
| 1777798989 | 13.89° C | 98% | 1016 hPa | 0 mm | - | 0 W/m² | - |
* Rain latest hour (hover to see other rain measurements)
** Current wind speed in m/s (hover to see current wind gust speed)